EDT,Max TemperatureF,Mean TemperatureF,Min TemperatureF,Max Dew PointF,MeanDew PointF,Min DewpointF,Max Humidity, Mean Humidity, Min Humidity, Max Sea Level PressureIn, Mean Sea Level PressureIn, Min Sea Level PressureIn, Max VisibilityMiles, Mean VisibilityMiles, Min VisibilityMiles, Max Wind SpeedMPH, Mean Wind SpeedMPH, Max Gust SpeedMPH,PrecipitationIn, CloudCover, Events, WindDirDegrees
2014-3-1,32,11,-11,9,-4,-16,79,55,31,30.44,30.22,30.01,10,10,8,10,3,15,0.00,6,,193
2014-3-2,31,13,-5,21,8,-8,84,60,36,30.16,30.08,30.00,10,6,0,16,7,22,0.02,6,Snow,339
2014-3-3,13,1,-12,-6,-11,-17,83,61,38,30.36,30.24,30.10,10,10,6,17,5,27,0.00,1,,352
2014-3-4,19,0,-19,7,-8,-24,83,58,33,30.39,30.33,30.29,10,9,7,8,2,10,T,4,,8
2014-3-5,20,6,-8,7,2,-12,83,64,45,30.63,30.40,30.25,10,7,2,16,4,21,T,6,Snow,345
2014-3-6,26,4,-18,-4,-13,-24,95,55,14,30.75,30.62,30.49,10,9,5,6,0,7,0.00,0,,180
2014-3-7,41,16,-9,9,-3,-14,83,48,13,30.48,30.19,29.93,10,10,8,10,3,16,0.00,0,,179
2014-3-8,35,22,8,25,14,5,78,62,46,29.95,29.89,29.83,10,10,6,13,3,19,0.00,4,,335
2014-3-9,27,13,-1,13,3,-6,87,60,32,30.03,29.95,29.83,10,9,2,17,3,24,T,2,Snow,334
2014-3-10,34,27,19,29,20,9,91,78,64,29.87,29.70,29.48,10,4,0,10,2,13,0.19,8,Snow,167
2014-3-11,39,33,27,32,28,23,89,72,54,29.74,29.54,29.41,10,7,1,10,4,17,T,7,Rain,214
2014-3-12,32,24,15,28,21,11,92,85,77,29.74,29.57,29.33,10,2,0,22,8,33,0.72,7,Fog-Snow,2
2014-3-13,15,10,4,10,0,-9,88,65,41,29.96,29.54,29.33,10,3,0,24,12,36,0.01,7,Snow,342
2014-3-14,33,11,-11,19,3,-15,92,65,38,30.11,29.94,29.73,10,10,9,12,3,17,0.00,4,,173
2014-3-15,45,35,24,33,26,18,89,71,53,29.92,29.74,29.58,10,5,0,15,5,23,0.12,7,Fog-Rain-Snow,335
2014-3-16,24,11,-3,18,2,-10,74,59,44,30.27,30.11,29.89,10,7,1,18,8,28,T,7,Snow,315
2014-3-17,21,2,-17,-4,-10,-20,79,57,34,30.26,30.21,30.15,10,10,5,12,2,17,0.00,0,,180
2014-3-18,36,12,-13,7,-5,-18,79,49,18,30.39,30.33,30.26,10,10,8,6,1,9,0.00,0,,194
2014-3-19,38,21,3,27,11,-1,83,54,24,30.34,30.18,29.91,10,9,1,22,10,33,T,5,Snow,186
2014-3-20,39,35,30,34,28,24,85,72,59,29.89,29.68,29.59,10,4,1,13,5,20,0.24,8,Rain-Snow,195
2014-3-21,34,25,16,27,19,10,85,64,43,30.03,29.81,29.65,10,4,1,21,7,28,0.01,7,Snow,298
2014-3-22,36,23,9,30,20,6,92,75,58,30.05,29.80,29.59,10,6,0,20,3,28,0.07,7,Fog-Snow,198
2014-3-23,32,14,-5,27,12,-10,85,60,35,30.20,30.01,29.87,10,5,0,21,7,28,0.05,6,Snow,304
2014-3-24,23,6,-12,-2,-8,-18,83,57,31,30.23,30.17,30.10,10,10,9,18,4,26,0.00,0,,321
2014-3-25,30,10,-11,6,-3,-16,82,55,28,30.13,30.05,29.99,10,10,8,16,3,21,0.00,3,,195
2014-3-26,25,16,6,13,4,-4,80,60,39,30.12,29.96,29.89,10,9,2,23,9,32,T,3,Snow,336
2014-3-27,35,16,-3,12,0,-8,75,50,25,30.34,30.23,30.14,10,10,8,10,2,15,0.00,3,,20
2014-3-28,45,38,30,40,31,17,92,70,47,30.12,29.95,29.82,10,4,0,15,6,22,0.47,8,Fog-Rain-Snow,174
2014-3-29,42,38,34,40,32,27,96,78,60,30.32,30.21,30.01,10,10,9,13,4,17,0.05,8,Rain,3
2014-3-30,38,35,31,34,31,24,96,84,72,30.05,29.89,29.82,10,6,2,20,9,28,0.72,8,Rain-Snow,356
2014-3-31,36,33,29,24,23,22,78,71,63,30.22,30.07,29.94,10,10,10,23,11,31,0.00,8,,5